This demonstration page uses our WeatherBlox Daily Observations layout. Learn more.

38.89511, -77.03637

Hourly Observations for April 4, 2017

Temp ( °F °C ) Dew Point ( °F °C ) Humidity (%) Winds ( mph kmh ) Pressure ( in mb ) Visibility ( mi km ) Precip ( " mm )
12:20 am 00:20 Cloudy 61 16 59 15 94 94 S 12 19 29.65 1004 10 16.09344 0 0
12:52 am 00:52 Cloudy 60 15.6 59 15 96 96 S 13 20 29.65 1004 10 16.09344 0 0
1:13 am 01:13 Cloudy 61 16.1 59 15 93 93 S 12 19 29.65 1004 10 16.09344 0 0
1:52 am 01:52 Cloudy 61 16.1 60 15.6 97 97 S 13 20 29.62 1003 10 16.09344 0 0
2:52 am 02:52 Cloudy 63 17.2 61 16.1 93 93 SW 9 15 29.62 1003 10 16.09344 0 0
3:10 am 03:10 Cloudy 63 17 61 16 94 94 SW 9 15 29.62 1003 10 16.09344 0 0
3:17 am 03:17 Cloudy 63 17.2 61 16.1 93 93 SW 10 17 29.62 1003 10 16.09344 0 0
3:34 am 03:34 Cloudy 63 17 61 16 94 94 S 9 15 29.62 1003 10 16.09344 0 0
3:44 am 03:44 Cloudy 63 17 61 16 94 94 SSW 10 17 29.62 1003 10 16.09344 0 0
3:52 am 03:52 Mostly Cloudy 62 16.7 61 16.1 96 96 SSW 10 17 29.59 1002 10 16.09344 0 0
4:09 am 04:09 Cloudy 62 16.7 61 16.1 96 96 SSW 9 15 29.59 1002 10 16.09344 0 0
4:52 am 04:52 Cloudy 60 15.6 59 15 96 96 SSW 9 15 29.59 1002 10 16.09344 0 0
5:52 am 05:52 Cloudy 63 17.2 60 15.6 90 90 SSW 13 20 29.59 1002 10 16.09344 0 0
6:52 am 06:52 Mostly Cloudy 63 17.2 60 15.6 90 90 SW 13 20 29.56 1001 10 16.09344 0 0
7:52 am 07:52 Cloudy 64 17.8 59 15 84 84 SSW 15 24 29.56 1001 10 16.09344 0 0
7:59 am 07:59 Cloudy 64 17.8 59 15 84 84 SSW 15 24 29.59 1002 10 16.09344 0 0
8:52 am 08:52 Cloudy 65 18.3 59 15 81 81 SSW 15 24 29.56 1001 10 16.09344 0 0
9:52 am 09:52 Mostly Cloudy 67 19.4 61 16.1 81 81 SSW 13 20 29.56 1001 10 16.09344 0.001 0.001
10:52 am 10:52 Partly Cloudy 71 21.7 60 15.6 68 68 WSW 18 30 29.56 1001 10 16.09344 0 0
11:52 am 11:52 Partly Cloudy 75 23.9 58 14.4 55 55 W 15 24 29.56 1001 10 16.09344 0 0
12:52 pm 12:52 Mostly Cloudy 76 24.4 55 12.8 48 48 WSW 17 28 29.56 1001 10 16.09344 0 0
1:52 pm 13:52 Mostly Cloudy 76 24.4 56 13.3 50 50 WSW 13 20 29.56 1001 10 16.09344 0 0
2:52 pm 14:52 Mostly Cloudy 76 24.4 55 12.8 48 48 SW 15 24 29.56 1001 10 16.09344 0 0
3:52 pm 15:52 Mostly Cloudy 78 25.6 53 11.7 42 42 W 13 20 29.56 1001 10 16.09344 0 0
4:52 pm 16:52 Mostly Cloudy 81 27.2 52 11.1 37 37 WNW 12 19 29.56 1001 10 16.09344 0 0
5:52 pm 17:52 Partly Cloudy 80 26.7 47 8.3 31 31 WNW 17 28 29.59 1002 10 16.09344 0 0
6:52 pm 18:52 Mostly Sunny 79 26.1 42 5.6 27 27 WNW 18 30 29.62 1003 10 16.09344 0 0
7:52 pm 19:52 Mostly Clear 75 23.9 43 6.1 32 32 NW 14 22 29.68 1005 10 16.09344 0 0
8:52 pm 20:52 Mostly Clear 73 22.8 44 6.7 35 35 NW 9 15 29.68 1005 10 16.09344 0 0
9:52 pm 21:52 Mostly Clear 71 21.7 44 6.7 38 38 NW 8 13 29.71 1006 10 16.09344 0 0
10:52 pm 22:52 Mostly Clear 71 21.7 44 6.7 38 38 NW 12 19 29.74 1007 10 16.09344 0 0
11:52 pm 23:52 Mostly Clear 69 20.6 44 6.7 41 41 NW 10 17 29.74 1007 10 16.09344 0 0

Powered by AerisWeather